CW5404 Weather Reports


time (UTC)temp
F
wind
direction
speed
knots
gust
knots
rain 1hr
in
rain 24hr
in
rain mn
in
humidity
%
barometer
mb
20260904151959 55 163 0.0 0.0 0.00 0.31 0.16 100 1010.9
20260904151459 55 163 0.0 0.0 0.00 0.31 0.16 100 1010.9
20260904150959 54 163 0.0 0.0 0.00 0.31 0.16 100 1010.9
20260904145959 54 163 0.0 0.0 0.00 0.31 0.16 100 1010.9
20260904145459 54 163 0.0 0.0 0.00 0.31 0.16 100 1010.8
20260904144459 54 163 0.0 0.0 0.00 0.31 0.16 100 1010.8
20260904143958 54 163 0.0 0.0 0.00 0.31 0.16 100 1010.7
20260904142959 54 163 0.0 0.0 0.00 0.31 0.16 100 1010.7
20260904141958 54 163 0.0 0.0 0.00 0.31 0.16 100 1010.4
20260904140959 54 163 0.0 0.0 0.00 0.31 0.16 100 1010.3
20260904135958 54 163 0.0 0.0 0.00 0.31 0.16 100 1010.3
20260904135458 54 163 0.0 0.0 0.00 0.32 0.16 100 1010.1
20260904134958 54 163 0.0 0.0 0.00 0.32 0.16 100 1010.1
20260904134458 54 163 0.0 0.0 0.00 0.32 0.16 100 1010.1
20260904133958 54 163 0.0 0.0 0.00 0.33 0.16 100 1009.9
20260904133458 54 163 0.0 0.0 0.00 0.33 0.16 100 1009.9
20260904132958 54 163 0.0 0.0 0.00 0.34 0.16 100 1009.9
20260904132458 54 163 0.0 0.0 0.01 0.34 0.16 100 1009.8
20260904131958 54 163 0.0 0.0 0.01 0.34 0.16 100 1009.8
20260904130957 54 163 0.0 0.0 0.03 0.34 0.16 100 1009.8
20260904130458 54 163 0.0 0.0 0.03 0.34 0.16 100 1009.8
20260904125457 54 163 0.0 0.0 0.03 0.36 0.16 100 1009.8
20260904124958 54 163 0.0 0.0 0.03 0.39 0.16 100 1009.8
20260904124458 54 163 0.0 0.0 0.03 0.40 0.16 100 1009.8
20260904123957 54 163 0.0 0.0 0.03 0.41 0.16 100 1009.7
20260904123457 54 163 0.0 0.0 0.03 0.42 0.16 100 1009.7
20260904122957 54 163 0.0 0.0 0.03 0.43 0.16 100 1009.7
20260904122457 54 163 0.0 0.0 0.02 0.42 0.15 100 1009.7
20260904121957 54 163 0.0 0.0 0.02 0.43 0.15 100 1009.7
20260904120957 54 163 0.0 0.0 0.00 0.43 0.13 100 1009.5
20260904120457 54 163 0.0 0.0 0.00 0.43 0.13 100 1009.5
20260904115957 54 163 0.0 0.0 0.00 0.43 0.13 100 1009.5
20260904115457 54 163 0.0 0.0 0.00 0.43 0.13 100 1009.3
20260904114957 54 163 0.0 0.0 0.00 0.43 0.13 100 1009.3
20260904113957 54 163 0.0 0.0 0.00 0.43 0.13 100 1009.2
20260904112956 54 163 0.0 0.0 0.01 0.43 0.13 100 1009.2
20260904112456 54 163 0.0 0.0 0.01 0.43 0.13 100 1009.1
20260904111956 54 163 0.0 0.0 0.01 0.43 0.13 100 1009.1
20260904111456 54 163 0.0 0.0 0.01 0.43 0.13 100 1009.1
20260904110957 54 163 0.0 0.0 0.01 0.43 0.13 100 1009.0
20260904110457 54 163 0.0 0.0 0.01 0.43 0.13 100 1009.0
20260904105956 54 163 0.0 0.0 0.01 0.43 0.13 100 1009.0
20260904105456 54 163 0.0 0.0 0.01 0.43 0.13 100 1008.9
20260904104956 54 163 0.0 0.0 0.01 0.43 0.13 100 1008.9
20260904104456 54 163 0.0 0.0 0.01 0.43 0.13 100 1008.9
20260904103956 54 163 0.0 0.0 0.01 0.43 0.13 100 1008.8
20260904102956 54 163 0.0 0.0 0.00 0.42 0.12 100 1008.8
20260904102456 54 163 0.0 0.0 0.00 0.42 0.12 100 1008.8
20260904100956 54 163 0.0 0.9 0.00 0.42 0.12 100 1008.7
20260904100456 54 163 0.0 0.9 0.00 0.42 0.12 100 1008.7
20260904095456 54 163 0.0 1.7 0.01 0.42 0.12 100 1008.7
20260904094955 54 189 0.9 1.7 0.01 0.42 0.12 100 1008.7
20260904094456 54 191 0.0 0.0 0.01 0.42 0.12 100 1008.7
20260904093957 54 191 0.0 0.0 0.02 0.42 0.12 100 1008.8
20260904093455 54 191 0.0 0.0 0.03 0.42 0.12 100 1008.8
20260904092955 54 191 0.0 0.0 0.04 0.42 0.12 100 1008.8
20260904092455 54 191 0.0 1.7 0.04 0.42 0.12 100 1008.8
20260904091955 54 191 0.0 1.7 0.05 0.42 0.12 100 1008.8
20260904091456 54 190 0.0 1.7 0.06 0.42 0.12 100 1008.8
20260904090956 54 190 1.7 1.7 0.07 0.42 0.12 100 1008.9
20260904090455 54 190 0.0 0.0 0.08 0.42 0.12 100 1008.9
20260904085955 54 190 0.0 0.9 0.08 0.41 0.11 100 1008.9
20260904085455 54 190 0.0 0.9 0.09 0.41 0.11 100 1008.9
20260904084955 54 190 0.0 0.9 0.10 0.41 0.11 100 1008.9
20260904084455 54 190 0.0 0.9 0.10 0.41 0.11 100 1008.9
20260904083955 54 190 0.0 0.9 0.09 0.40 0.10 100 1008.8
20260904082955 54 190 0.0 0.0 0.08 0.38 0.08 100 1008.8
20260904082455 55 190 0.0 0.0 0.08 0.38 0.08 100 1008.7
20260904081955 55 190 0.0 0.0 0.07 0.37 0.07 100 1008.7
20260904081455 55 190 0.0 0.9 0.06 0.36 0.06 100 1008.7
20260904080955 55 190 0.0 0.9 0.05 0.35 0.05 100 1008.8
20260904080455 55 190 0.9 1.7 0.04 0.34 0.04 100 1008.8
20260904075455 55 184 0.0 0.0 0.02 0.32 0.02 100 1008.8
20260904074454 55 184 0.0 0.0 0.01 0.31 0.01 100 1008.8
20260904073954 55 184 0.0 0.0 0.01 0.31 0.01 100 1008.8
20260904072455 55 184 0.0 0.0 0.01 0.30 0.00 100 1008.9
20260904071954 55 184 0.0 0.0 0.01 0.30 0.00 100 1008.9
20260904071454 55 184 0.0 0.0 0.01 0.30 0.00 100 1008.9
20260904070454 55 184 0.0 0.0 0.01 0.30 0.00 100 1008.7
20260904065954 55 184 0.0 0.0 0.01 0.30 0.00 100 1008.7
20260904065454 55 184 0.0 0.0 0.01 0.30 0.30 100 1008.8
20260904064954 55 184 0.0 0.0 0.01 0.30 0.30 100 1008.8
20260904064454 55 184 0.0 0.0 0.01 0.30 0.30 100 1008.8
20260904063953 55 184 0.0 0.0 0.01 0.30 0.30 100 1008.8
20260904062953 55 184 0.0 0.0 0.00 0.29 0.29 100 1008.8
20260904062454 55 184 0.0 0.0 0.00 0.29 0.29 100 1008.8
20260904061953 55 184 0.0 0.0 0.00 0.29 0.29 100 1008.8
20260904061453 55 184 0.0 0.0 0.00 0.29 0.29 100 1008.8
20260904060953 55 184 0.0 0.0 0.00 0.30 0.29 100 1008.8
20260904060453 55 184 0.0 0.9 0.00 0.30 0.29 100 1008.8
20260904055953 55 184 0.0 0.9 0.00 0.30 0.29 100 1008.8
20260904055453 55 184 0.0 0.0 0.00 0.30 0.29 99 1008.8
20260904054953 55 184 0.0 0.9 0.00 0.30 0.29 99 1008.8
20260904054453 55 184 0.0 1.7 0.00 0.30 0.29 99 1008.8
20260904053953 55 184 0.9 1.7 0.00 0.30 0.29 99 1008.8
20260904052953 55 184 0.0 3.5 0.00 0.30 0.29 99 1008.8
20260904052453 55 184 0.0 3.5 0.00 0.30 0.29 99 1008.7
20260904051953 55 182 0.0 2.6 0.00 0.30 0.29 99 1008.7
20260904051452 55 179 0.9 2.6 0.00 0.30 0.29 99 1008.7
20260904050953 55 178 0.0 2.6 0.00 0.30 0.29 99 1008.8
20260904050453 55 175 0.0 2.6 0.00 0.31 0.29 98 1008.8
20260904045952 55 148 1.7 4.3 0.00 0.31 0.29 99 1008.8
20260904045453 55 184 1.7 4.3 0.00 0.32 0.29 98 1008.8
20260904044953 55 184 0.9 4.3 0.00 0.33 0.29 99 1008.8
20260904043952 55 169 0.9 3.5 0.00 0.34 0.29 99 1008.8
20260904043452 55 159 1.7 3.5 0.00 0.35 0.29 99 1008.8
20260904042952 55 191 1.7 2.6 0.00 0.36 0.29 99 1008.8
20260904041952 55 173 0.9 3.5 0.00 0.36 0.29 100 1008.7
20260904041452 55 192 0.9 4.3 0.00 0.36 0.29 100 1008.7
20260904035952 55 190 2.6 2.6 0.01 0.36 0.29 100 1008.7
20260904035452 55 190 0.0 4.3 0.01 0.36 0.29 100 1008.7
20260904034952 55 194 1.7 4.3 0.01 0.36 0.29 100 1008.7
20260904034452 55 202 0.0 4.3 0.01 0.36 0.29 100 1008.7
20260904033452 55 203 2.6 5.2 0.01 0.36 0.29 99 1008.4
20260904032951 55 153 3.5 5.2 0.02 0.36 0.29 98 1008.4
20260904032452 55 193 0.9 4.3 0.02 0.36 0.29 97 1008.3
20260904031951 55 169 2.6 5.2 0.02 0.36 0.29 97 1008.3
20260904025952 56 192 3.5 7.0 0.01 0.35 0.28 95 1008.5
20260904025452 56 173 0.9 7.0 0.01 0.35 0.28 95 1008.5
20260904024951 56 137 1.7 6.1 0.01 0.35 0.28 95 1008.5
20260904024451 56 188 1.7 6.1 0.01 0.35 0.28 94 1008.5
20260904023951 56 205 4.3 7.8 0.01 0.35 0.28 94 1008.4
20260904023451 56 150 1.7 7.8 0.01 0.35 0.28 93 1008.4
20260904022451 56 188 1.7 6.1 0.00 0.34 0.27 92 1008.4
20260904021952 56 187 1.7 6.1 0.00 0.34 0.27 92 1008.4
20260904021451 56 185 2.6 7.0 0.00 0.34 0.27 92 1008.4
20260904020451 56 163 2.6 7.0 0.00 0.34 0.27 92 1008.4
20260904015950 56 173 2.6 7.0 0.00 0.34 0.27 92 1008.4
20260904015451 57 225 3.5 7.0 0.00 0.34 0.27 92 1008.3
20260904014950 57 178 0.9 7.0 0.00 0.34 0.27 92 1008.3
20260904014450 57 184 1.7 7.0 0.00 0.34 0.27 92 1008.3
20260904013951 57 128 2.6 7.0 0.00 0.34 0.27 93 1008.2
20260904012951 57 142 1.7 6.1 0.00 0.34 0.27 92 1008.2
20260904012451 57 188 3.5 8.7 0.00 0.34 0.27 92 1008.2
20260904011950 57 162 3.5 10.4 0.00 0.34 0.27 91 1008.2
20260904011450 57 192 7.8 10.4 0.00 0.34 0.27 89 1008.2
20260904010950 57 180 3.5 10.4 0.00 0.34 0.27 88 1008.4
20260904010450 58 136 0.9 10.4 0.00 0.34 0.27 88 1008.4
20260904005450 58 189 7.8 7.8 0.00 0.34 0.27 89 1008.3
20260904004450 58 186 0.0 5.2 0.00 0.34 0.27 89 1008.3
20260904003950 58 139 0.9 5.2 0.00 0.34 0.27 89 1008.3
20260904003450 59 171 0.0 7.0 0.00 0.34 0.27 89 1008.4
20260904002449 59 360 2.6 7.0 0.00 0.34 0.27 87 1008.5
20260904001949 59 360 1.7 7.0 0.00 0.34 0.27 87 1008.5
20260904000950 59 360 2.6 6.1 0.00 0.35 0.27 87 1008.6
20260904000450 59 360 4.3 4.3 0.00 0.36 0.27 88 1008.6
20260903235449 59 168 0.0 5.2 0.00 0.36 0.27 86 1008.6
20260903234949 59 169 1.7 5.2 0.00 0.36 0.27 86 1008.6
20260903234449 59 172 1.7 5.2 0.00 0.36 0.27 85 1008.5
20260903233949 59 175 0.9 3.5 0.00 0.36 0.27 85 1008.5
20260903233449 59 174 0.0 3.5 0.00 0.36 0.27 85 1008.5
20260903232949 60 169 0.0 3.5 0.00 0.36 0.27 85 1008.6
20260903232449 60 159 2.6 3.5 0.00 0.36 0.27 85 1008.8
20260903231949 60 360 1.7 6.1 0.00 0.36 0.27 83 1008.7
20260903231450 60 360 1.7 7.0 0.00 0.36 0.27 82 1008.7
20260903230949 60 360 0.9 7.0 0.01 0.36 0.27 82 1008.5
20260903224949 60 360 2.6 5.2 0.01 0.36 0.27 86 1008.7
20260903224449 59 360 2.6 5.2 0.01 0.36 0.27 86 1008.6
20260903222948 58 360 4.3 4.3 0.01 0.36 0.27 89 1008.8
20260903222448 58 360 0.9 4.3 0.01 0.36 0.27 91 1008.8
20260903221948 58 360 0.9 5.2 0.01 0.36 0.27 91 1008.8
20260903221448 57 360 0.9 5.2 0.01 0.36 0.27 90 1008.8
20260903220948 57 360 0.0 5.2 0.00 0.36 0.26 90 1009.1
20260903220448 57 360 1.7 6.1 0.00 0.36 0.26 90 1009.1
20260903215948 57 360 0.9 7.0 0.00 0.37 0.26 90 1009.1
20260903215448 57 360 4.3 7.0 0.01 0.39 0.26 91 1009.1
20260903214948 57 360 0.0 5.2 0.01 0.40 0.26 91 1009.1
20260903214448 57 360 4.3 5.2 0.01 0.40 0.26 92 1009.1
20260903213948 57 360 0.0 4.3 0.01 0.41 0.26 92 1009.2
20260903213448 56 360 3.5 6.1 0.01 0.42 0.26 92 1009.2
20260903212948 56 360 0.9 6.1 0.01 0.42 0.26 92 1009.2
20260903212448 56 360 0.9 4.3 0.01 0.42 0.26 92 1009.0
20260903211948 56 221 1.7 2.6 0.02 0.42 0.26 93 1009.0
20260903211448 56 236 0.9 2.6 0.02 0.42 0.26 92 1009.0
20260903210948 55 215 1.7 4.3 0.02 0.44 0.26 92 1008.9
20260903210448 55 229 0.0 6.1 0.03 0.44 0.26 92 1008.9
20260903205948 55 261 0.0 6.1 0.04 0.44 0.26 91 1008.9
20260903204947 56 360 3.5 6.1 0.05 0.44 0.25 93 1009.2
20260903204447 56 360 1.7 5.2 0.06 0.45 0.25 93 1009.2
20260903203947 56 204 0.9 5.2 0.07 0.45 0.25 93 1009.1
20260903203448 56 188 1.7 4.3 0.07 0.46 0.25 94 1009.1
20260903202948 56 223 0.0 3.5 0.07 0.47 0.25 94 1009.1
20260903202447 56 230 0.9 3.5 0.08 0.48 0.25 94 1009.2
20260903201947 56 215 0.9 4.3 0.07 0.48 0.24 93 1009.2
20260903201448 56 240 2.6 4.3 0.08 0.48 0.24 93 1009.2
20260903195947 56 153 0.9 8.7 0.07 0.48 0.22 91 1009.3
20260903195448 57 266 0.0 6.1 0.05 0.46 0.20 91 1009.3
20260903194948 57 258 0.9 7.0 0.05 0.47 0.20 91 1009.3
20260903194447 57 201 4.3 7.0 0.04 0.46 0.19 92 1009.3
20260903193947 57 210 0.0 6.1 0.03 0.46 0.18 91 1009.2
20260903193447 58 186 4.3 4.3 0.03 0.46 0.18 92 1009.2
20260903192947 58 202 0.9 4.3 0.03 0.47 0.18 92 1009.2
20260903192447 58 201 2.6 3.5 0.02 0.47 0.17 91 1009.3
20260903191947 58 186 0.9 2.6 0.02 0.47 0.17 91 1009.3
20260903191447 58 262 0.9 3.5 0.01 0.47 0.16 90 1009.3
20260903190947 58 178 0.0 3.5 0.01 0.49 0.16 88 1009.3
20260903190447 58 360 0.0 2.6 0.00 0.50 0.15 86 1009.3
20260903185947 59 360 0.0 5.2 0.00 0.51 0.15 87 1009.3
20260903185447 59 360 0.0 7.8 0.00 0.52 0.15 88 1009.4
20260903184947 59 360 4.3 7.8 0.00 0.52 0.15 88 1009.4
20260903184447 59 360 0.9 8.7 0.00 0.53 0.15 89 1009.4
20260903183947 59 360 7.8 11.3 0.00 0.53 0.15 90 1009.1
20260903183447 58 360 2.6 11.3 0.00 0.55 0.15 90 1009.0
20260903182947 58 360 2.6 10.4 0.00 0.56 0.15 90 1009.0
20260903182447 58 360 9.6 9.6 0.00 0.57 0.15 92 1009.1
20260903181446 58 360 4.3 7.8 0.00 0.58 0.15 92 1009.1
20260903180946 58 360 2.6 7.8 0.00 0.59 0.15 92 1009.0
20260903180446 58 360 2.6 9.6 0.00 0.60 0.15 92 1009.0
20260903175946 58 360 4.3 9.6 0.00 0.61 0.15 93 1009.0
20260903175446 58 360 2.6 8.7 0.00 0.63 0.15 93 1009.1
20260903174446 58 360 2.6 8.7 0.00 0.67 0.15 94 1009.1
20260903173946 58 360 4.3 8.7 0.00 0.69 0.15 95 1009.0
20260903172946 57 360 3.5 7.8 0.00 0.71 0.15 95 1008.9
20260903172446 57 360 7.8 7.8 0.00 0.72 0.15 95 1009.1
20260903171946 57 360 2.6 8.7 0.00 0.72 0.15 95 1009.1
20260903170946 57 360 6.1 9.6 0.00 0.72 0.15 95 1009.0
20260903170446 57 360 3.5 9.6 0.00 0.73 0.15 95 1009.0
20260903164946 57 360 1.7 6.1 0.00 0.75 0.15 95 1009.2
20260903164446 57 360 3.5 7.0 0.00 0.75 0.15 95 1009.2
20260903163945 57 360 4.3 7.0 0.00 0.76 0.15 96 1009.2
20260903162946 57 144 1.7 5.2 0.00 0.77 0.15 95 1009.2
20260903161945 57 190 1.7 7.0 0.00 0.78 0.15 95 1009.3
20260903161445 57 360 2.6 4.3 0.00 0.79 0.15 96 1009.3
20260903160945 57 360 0.9 6.1 0.00 0.79 0.15 95 1009.4
20260903160445 57 360 0.9 7.8 0.00 0.80 0.15 96 1009.4
20260903155945 57 360 1.7 7.8 0.00 0.80 0.15 96 1009.4
20260903155445 57 360 5.2 7.0 0.00 0.80 0.15 96 1009.3
20260903154945 57 360 4.3 7.0 0.00 0.80 0.15 98 1009.3
20260903154445 56 360 4.3 8.7 0.00 0.80 0.15 99 1009.2
20260903153945 56 360 2.6 8.7 0.00 0.80 0.15 100 1009.3